User: anonymous   Login
Location: Unspecified
(0.0000°N, 0.0000°E)
Time: 07:32:34
(UTC+00:00)
Language:

MUOS 3 - Orbit

View from above orbital plane
View from above orbital plane
View from above satellite
View from above satellite

Ground track
Ground track

The orbit data is extracted from the following two-line orbital elements,

1 40374U 15002A   17227.06566463 0.00000000  00000-0  00000-0 0    04
2 40374   4.0150 331.8802 0055485 179.0995 180.8792  1.00270000    07
Epoch (UTC): 15 August 2017 01:34:33
Eccentricity: 0.0055485
inclination: 4.0150°
perigee height: 35553 km
apogee height: 36020 km
right ascension of ascending node: 331.8802°
argument of perigee: 179.0995°
revolutions per day: 1.00270000
mean anomaly at epoch: 180.8792°
orbit number at epoch: 0

The dashed part of the orbit path shows where the satellite is in the earth's shadow,  

DLR